This is the latest recevied weather packets stored in our database for station/object DL8BNG-13. If no packets are shown the sender has not sent any weather packets the latest 10 day(s).
| Time | Temp. | Humidity | Pressure | Rain* | Wind** | Luminosity | Snow |
|---|---|---|---|---|---|---|---|
| 1788356703 | 22.78° C | 39% | - | 0 mm | - | - | - |
| 1788355802 | 22.78° C | 41% | - | 0 mm | - | - | - |
| 1788354903 | 22.78° C | 43% | - | 0 mm | - | - | - |
| 1788354002 | 22.78° C | 44% | - | 0 mm | - | - | - |
| 1788352202 | 22.22° C | 42% | - | 0 mm | - | - | - |
| 1788351302 | 22.22° C | 41% | - | 0 mm | - | - | - |
| 1788348603 | 21.11° C | 42% | - | 0 mm | - | - | - |
| 1788347703 | 20.56° C | 45% | - | 0 mm | - | - | - |
| 1788346802 | 20° C | 44% | - | 0 mm | - | - | - |
| 1788345002 | 18.89° C | 47% | - | 0 mm | - | - | - |
| 1788344102 | 18.89° C | 54% | - | 0 mm | - | - | - |
| 1788343203 | 18.33° C | 57% | - | 0 mm | - | - | - |
| 1788341402 | 16.67° C | 62% | - | 0 mm | - | - | - |
| 1788340502 | 16.11° C | 67% | - | 0 mm | - | - | - |
| 1788339604 | 15.56° C | 72% | - | 0 mm | - | - | - |
| 1788338703 | 15° C | 73% | - | 0 mm | - | - | - |
| 1788337803 | 15° C | 75% | - | 0 mm | - | - | - |
| 1788336902 | 14.44° C | 77% | - | 0 mm | - | - | - |
| 1788336002 | 14.44° C | 79% | - | 0 mm | - | - | - |
| 1788335102 | 13.89° C | 80% | - | 0 mm | - | - | - |
| 1788334204 | 13.89° C | 82% | - | 0 mm | - | - | - |
| 1788333303 | 13.33° C | 85% | - | 0 mm | - | - | - |
| 1788332402 | 12.78° C | 87% | - | 0 mm | - | - | - |
| 1788331502 | 12.78° C | 87% | - | 0 mm | - | - | - |
| 1788330603 | 12.78° C | 88% | - | 0 mm | - | - | - |
* Rain since midnight (hover to see other rain measurements)
** Current wind speed in m/s (hover to see current wind gust speed)